Location: Muenchen
(48.1800°N, 11.5800°E)
Time: 19:26:45
(UTC+02:00)

Sich 1 Rocket - Visible Passes

Search period start: 22 July 2014 00:00
Search period end: 01 August 2014 00:00
Orbit: 617 x 655 km, 82.5° (Epoch: 22 July)

Date Brightness Start Highest point End Pass type
(mag) Time Alt. Az. Time Alt. Az. Time Alt. Az.
24 Jul 6.9 04:53:30 10° NNE 04:55:51 14° ENE 04:58:11 10° E visible
27 Jul 6.9 04:24:02 10° NE 04:25:50 12° ENE 04:27:38 10° E visible
28 Jul 6.4 04:45:30 10° NNE 04:48:59 22° ENE 04:52:27 10° ESE visible
30 Jul 7.0 03:54:54 10° NE 03:55:48 11° ENE 03:56:43 10° ENE visible
31 Jul 6.4 04:15:45 10° NNE 04:18:59 20° ENE 04:22:13 10° ESE visible
